STARLINK-31891, 59854

Orbit data source: Space-Track

STARLINK-31891, 59854 is a payload satellite owned by SpaceX/Seattle (US) in LEO that was launched on Thu, 23 May 2024 UTC via an FALCON 9 launch vehicle from the Air Force Eastern Test Range (AFETR). Payload-class satellites include a variety of spacecraft equipped with specific instruments for various scientific and technological missions. These include communications satellites like Starlink; space stations such as the ISS; scientific satellites like the Hubble; Earth observation satellites from companies like Planet Labs, Umbra, and HawkEye 360; GPS; miniature CubeSats for education and research; and military/defense satellites.

Loading next visibility...
Identifier
59854, 2024-097V
Orbit
LEO
Country
Flag of USUS
Related business
Manufacturer
SpaceX/Seattle
Mission
Operational Commercial Communications
Bus & Motor
STARLINK V2M, Unknown motor
Mass
730 kg wet, ~700 kg dry
Launch date (UTC)
2024-05-23 (2 years ago)
Launch vehicle
FALCON 9
Launch site
Air Force Eastern Test Range (AFETR)
Object type
Payload
Rocket body
Debris
Shape & HBR
Box + 2 Pan, 17.7 m
Radar Cross Section
33.884 m², Large (>1 m²)

Expand to show TLE details & history
Last TLE update: 2 days ago

TLE from 2 days ago
0 STARLINK-31891
1 59854U 24097V   26171.08469128  .00003155  00000-0  12406-3 0  9998
2 59854  43.0028  56.3569 0001100 278.0776  81.9951 15.27596125117570
Epoch: 2026-06-20T02:01Z
TLE epoch observation values (Epoch: 2026-06-20T02:01:57.326Z)
Latitude
-0.00001°
Longitude
117.56364°
Altitude
482.672 km
Speed
7.626 km/s
True Right ascension
03h 45m 25s
True Declination
0° 00' 00"
Sunlit
Object was in daylight at epoch
Visualization orbit readout
Latitude
Unknown
Longitude
Unknown
Altitude
Unknown
Speed
Unknown
Apparent Right ascension
Unknown
Apparent Declination
Unknown
Sunlit
N/A
Visualization observer readout
Local Sidereal Time
23:09:15
Azimuth
Unknown
Elevation
Unknown
Doppler factor
Unknown
Orbital elements
Apogee altitude
485.7 km
Perigee altitude
484.191 km
Semi-major axis
6,863.083 km
Eccentricity
0.00011
Inclination
43.0028°
RAAN
56.3569°
Arg. of periapsis
278.0776°
True anomaly
82.00758°
Mean anomaly
81.9951°
Eccentric anomaly
82.00134°
Mean motion
3.81737 °/min
Orbital period
94.31 mins
BSTAR
0.00012406
Loading maneuver chart data...
Computing Atmospheric mass density...
Loading historical data...
Loading historical data...
Loading historical data...
Loading historical data...
Loading historical data...
Loading historical data...
Loading historical data...

Documentation

Showing up to 5 results
|